Location: La Bilong�re
(48.1297°N, 1.4584°W)
Time: 00:08:47
(UTC+00:00)

Meteor 1-14 Rocket - Pass Details

Date: 03 March 2021
Orbit: 834 x 918 km, 81.3° (Epoch: 20 April)

Event Time Altitude Azimuth Distance (km) Brightness Sun altitude
Rises 19:21:08 0° 191° (SSW) 3,396 7.4 -15.4°
Reaches altitude 10° 19:23:32 10° 193° (SSW) 2,457 6.7 -15.8°
Maximum altitude 19:29:06 84° 280° (W) 849 4.2 -16.7°
Drops below altitude 10° 19:34:41 10° 10° (N) 2,458 6.6 -17.6°
Sets 19:37:06 0° 12° (NNE) 3,397 7.3 -18.0°
